[[{"header":{"parameterUnit":"m.s-1","parameterCategory":1,"la1":30.2991,"la2":30.254,"lo1":-89.0895,"lo2":-89.0444,"dy":0.0017,"dx":0.0017,"nx":28,"ny":28,"refTime":"2025-02-26T09:00:00:Z","depth":0,"parameterNumber":2,"parameterNumberName":"U-component_of_WINDS"},"data":[0,0,0,0,0,0,0,0,0,0,0,0,0,0,0,0,0,0,0,0,0,0,0,0,0,0,0,0,0,0,0,0,0,0,0,0,0,0,0,0,0,0,0,0,0,0,0,0,0,0,0,0,0,0,0,0,0,0,-0.3617,-0.3617,0,-0.3644,-0.3645,-0.3645,-0.3629,-0.3629,-0.3628,-0.3627,-0.3658,-0.366,-0.3661,0,0,0,0,0,0,0,0,0,0,0,0,0,-0.3554,-0.3555,-0.3617,-0.3617,-0.3618,-0.3644,-0.3645,-0.3645,-0.363,-0.3629,-0.3628,-0.3627,-0.3658,-0.366,-0.3661,0,0,0,0,0,0,0,0,0,0,0,0,0,-0.3581,-0.3555,-0.3617,-0.3613,-0.3613,-0.3644,-0.3645,-0.3645,-0.363,-0.3629,-0.3627,-0.3626,-0.3657,-0.3659,-0.3662,-0.3699,0,0,-0.3669,-0.367,0,0,0,0,0,0,0,0,-0.358,-0.3584,-0.3613,-0.3613,-0.3613,-0.3632,-0.3634,-0.3664,-0.363,-0.3624,-0.3627,-0.3626,-0.3651,-0.3654,-0.3661,-0.3701,-0.3702,-0.3669,-0.367,-0.3671,-0.3672,0,0,0,0,0,0,0,-0.3578,-0.3582,-0.3628,-0.3614,-0.3614,-0.3611,-0.3613,-0.3639,-0.3643,-0.3624,-0.3623,-0.3626,-0.3651,-0.3659,-0.3662,-0.3703,-0.3669,-0.3671,-0.3673,-0.3673,-0.3774,-0.3776,0,0,0,0,0,0,-0.3576,-0.3581,-0.3627,-0.3629,-0.3593,-0.3613,-0.3616,-0.3627,-0.3643,-0.3644,-0.3627,-0.3625,-0.3656,-0.3659,-0.3663,-0.3708,-0.3671,-0.3674,-0.3675,-0.3773,-0.3775,-0.3776,0,0,0,0,0,0,-0.3574,-0.358,-0.3626,-0.3604,-0.361,-0.3615,-0.3628,-0.3629,-0.3637,-0.3645,-0.3646,-0.3635,-0.3655,-0.366,-0.369,-0.3709,-0.3675,-0.3677,-0.3772,-0.3774,-0.3775,-0.3799,0,0,0,0,0,0,-0.3573,-0.358,-0.3594,-0.3605,-0.3611,-0.3652,-0.363,-0.363,-0.3641,-0.3639,-0.3653,-0.3654,-0.3654,-0.3687,-0.3693,-0.3712,-0.3679,-0.377,-0.3772,-0.3775,-0.3797,-0.3802,-0.3806,0,0,0,0,0,-0.357,-0.36,-0.3594,-0.36,-0.3629,-0.3653,-0.3657,-0.3656,-0.3642,-0.3657,-0.3662,-0.3654,-0.3706,-0.369,-0.3696,-0.3717,-0.3769,-0.3772,-0.3775,-0.3795,-0.3801,-0.3806,0,0,0,0,0,0,-0.3592,-0.3601,-0.3595,-0.3629,-0.364,-0.3651,-0.3669,-0.3662,-0.3678,-0.3676,-0.3674,-0.3678,-0.3709,-0.3716,-0.3698,-0.3754,-0.3735,-0.374,-0.3749,-0.3754,-0.3759,-0.3757,-0.3681,0,0,0,0,0,-0.36,-0.3619,-0.3626,-0.3655,-0.3661,-0.3664,-0.3675,-0.3672,-0.3685,-0.369,-0.3697,-0.371,-0.3729,-0.3742,-0.376,-0.3797,-0.3801,-0.3814,-0.3819,-0.3822,-0.3827,-0.3847,-0.3853,-0.3786,-0.3786,-0.3785,0,0,-0.3619,-0.3626,-0.3638,-0.366,-0.3668,-0.3688,-0.3668,-0.369,-0.3705,-0.3693,-0.3722,-0.3728,-0.3742,-0.3776,-0.3792,-0.3783,-0.3846,-0.3826,-0.3829,-0.3831,-0.3851,-0.3857,-0.3863,-0.3787,-0.3787,-0.3787,0,0,-0.3662,-0.3669,-0.3694,-0.3703,-0.3715,-0.3717,-0.3723,-0.3734,-0.3737,-0.3766,-0.3757,-0.3775,-0.3808,-0.3818,-0.3828,-0.3874,-0.3868,-0.388,-0.3905,-0.3925,-0.393,-0.3935,-0.3952,-0.3958,-0.3884,-0.3884,-0.3884,0,-0.3684,-0.3712,-0.3708,-0.3731,-0.3741,-0.3729,-0.3755,-0.3764,-0.3782,-0.379,-0.3779,-0.382,-0.3829,-0.3865,-0.3876,-0.3884,-0.3891,-0.3879,-0.3929,-0.3934,-0.3938,-0.3955,-0.3961,-0.3885,-0.3885,-0.3885,-0.3885,0,-0.3738,-0.3758,-0.3777,-0.3794,-0.3806,-0.383,-0.383,-0.3843,-0.384,-0.3842,-0.3872,-0.3882,-0.3901,-0.391,-0.3907,-0.3946,-0.394,-0.3929,-0.3911,-0.3946,-0.3962,-0.3968,-0.3888,-0.3887,-0.3887,-0.3886,0,0,-0.3798,-0.3811,-0.3818,-0.3825,-0.3838,-0.3854,-0.3877,-0.3895,-0.3907,-0.3919,-0.394,-0.3967,-0.3957,-0.3968,-0.3966,-0.3983,-0.402,-0.3971,-0.3971,-0.398,-0.4064,-0.4073,-0.408,-0.4015,-0.4016,-0.4017,-0.4063,0,-0.3843,-0.3883,-0.388,-0.3918,-0.3937,-0.3925,-0.3946,-0.3956,-0.3959,-0.3976,-0.3979,-0.3999,-0.3984,-0.3991,-0.4007,-0.4012,-0.4037,-0.4008,-0.4035,-0.4036,-0.4033,-0.4088,-0.4098,-0.4141,-0.4069,-0.407,-0.4071,0,-0.3901,-0.3915,-0.3955,-0.3964,-0.3972,-0.399,-0.4006,-0.4022,-0.4033,-0.4034,-0.4046,-0.4041,-0.4065,-0.4045,-0.4079,-0.4059,-0.407,-0.4074,-0.4075,-0.4079,-0.4056,-0.4094,-0.4154,-0.4161,-0.408,-0.4079,-0.4079,0,-0.3942,-0.397,-0.3997,-0.4004,-0.4015,-0.4028,-0.4034,-0.4044,-0.4055,-0.4069,-0.4076,-0.4093,-0.4103,-0.4117,-0.4117,-0.4102,-0.4151,-0.4131,-0.4154,-0.4154,-0.4166,-0.4166,-0.423,-0.4171,-0.417,-0.417,-0.417,0,-0.3993,-0.4018,-0.4016,-0.4033,-0.4061,-0.4056,-0.4084,-0.4088,-0.4097,-0.4115,-0.4106,-0.4124,-0.4122,-0.414,-0.4139,-0.4168,-0.4172,-0.4174,-0.4174,-0.4176,-0.4176,-0.4184,-0.4181,-0.4172,-0.4172,-0.4171,-0.4171,0,-0.4044,-0.4043,-0.4072,-0.408,-0.4082,-0.4103,-0.4109,-0.4126,-0.4127,-0.415,-0.4155,-0.4158,-0.4178,-0.4179,-0.4203,-0.4202,-0.4237,-0.4233,-0.4234,-0.4233,-0.4256,-0.4255,-0.4329,-0.4339,-0.4272,-0.4273,-0.4273,0,-0.4077,-0.4096,-0.4105,-0.4116,-0.4122,-0.414,-0.4151,-0.4147,-0.4159,-0.4173,-0.4188,-0.4207,-0.4222,-0.4255,-0.426,-0.4278,-0.4275,-0.4299,-0.4278,-0.4278,-0.4276,-0.4276,-0.4278,-0.4304,-0.4305,-0.4306,-0.4306,0,-0.4137,-0.4136,-0.4151,-0.4166,-0.4179,-0.4191,-0.4202,-0.4212,-0.4209,-0.4223,-0.4243,-0.4255,-0.4278,-0.4297,-0.4314,-0.4321,-0.4314,-0.4313,-0.4319,-0.4322,-0.4322,-0.4323,-0.4247,-0.4312,-0.4311,-0.4311,-0.431,-0.431,-0.4181,-0.4198,-0.4206,-0.4224,-0.4231,-0.4241,-0.4257,-0.426,-0.4276,-0.4294,-0.4291,-0.4314,-0.4324,-0.4346,-0.4354,-0.4372,-0.4363,-0.4372,-0.4375,-0.4378,-0.438,-0.4317,-0.4375,-0.4375,-0.4374,-0.4374,-0.4374,0,-0.4242,-0.4246,-0.4262,-0.4277,-0.4291,-0.4281,-0.4292,-0.4305,-0.4325,-0.4334,-0.4349,-0.4372,-0.4391,-0.4396,-0.4414,-0.4427,-0.4425,-0.4432,-0.4432,-0.4434,-0.4387,-0.438,-0.4434,-0.4434,-0.4434,-0.4434,-0.4434,-0.4434,-0.4275,-0.4302,-0.4301,-0.4332,-0.4336,-0.4358,-0.4365,-0.4375,-0.4382,-0.4408,-0.4423,-0.4426,-0.4434,-0.4452,-0.4469,-0.447,-0.4478,-0.4487,-0.4487,-0.4443,-0.4437,-0.4431,-0.4425,-0.4488,-0.4489,-0.4533,-0.4533,-0.4534]},{"header":{"parameterUnit":"m.s-1","parameterCategory":1,"la1":30.2991,"la2":30.254,"lo1":-89.0895,"lo2":-89.0444,"dy":0.0017,"dx":0.0017,"nx":28,"ny":28,"refTime":"2025-02-26T09:00:00:Z","depth":0,"parameterNumber":3,"parameterNumberName":"V-component_of_WINDS"},"data":[0,0,0,0,0,0,0,0,0,0,0,0,0,0,0,0,0,0,0,0,0,0,0,0,0,0,0,0,0,0,0,0,0,0,0,0,0,0,0,0,0,0,0,0,0,0,0,0,0,0,0,0,0,0,0,0,0,0,-4.6292,-4.6292,0,-4.6288,-4.6288,-4.6288,-4.6185,-4.6182,-4.6179,-4.6177,-4.6173,-4.6175,-4.6178,0,0,0,0,0,0,0,0,0,0,0,0,0,-4.6209,-4.6211,-4.6292,-4.6292,-4.6292,-4.6288,-4.6288,-4.6288,-4.6185,-4.6182,-4.6179,-4.6175,-4.6172,-4.6175,-4.6178,0,0,0,0,0,0,0,0,0,0,0,0,0,-4.6229,-4.6212,-4.6292,-4.624,-4.6235,-4.6288,-4.6288,-4.6288,-4.6186,-4.6182,-4.6178,-4.6174,-4.6171,-4.6175,-4.6178,-4.6281,0,0,-4.6189,-4.6191,0,0,0,0,0,0,0,0,-4.6228,-4.6232,-4.6248,-4.6244,-4.6238,-4.6233,-4.6257,-4.6286,-4.6187,-4.6205,-4.6177,-4.6172,-4.6196,-4.6197,-4.6206,-4.6281,-4.628,-4.619,-4.6192,-4.6193,-4.6194,0,0,0,0,0,0,0,-4.6227,-4.6232,-4.629,-4.6248,-4.6242,-4.6217,-4.6215,-4.6262,-4.6223,-4.6203,-4.6195,-4.6196,-4.6193,-4.6202,-4.6205,-4.628,-4.6189,-4.6193,-4.6195,-4.6196,-4.644,-4.6444,0,0,0,0,0,0,-4.6233,-4.6231,-4.629,-4.629,-4.6223,-4.6221,-4.622,-4.6239,-4.6222,-4.6216,-4.62,-4.6191,-4.6198,-4.6201,-4.6204,-4.6324,-4.6193,-4.6197,-4.6199,-4.6436,-4.6441,-4.6446,0,0,0,0,0,0,-4.6231,-4.6239,-4.6291,-4.6259,-4.6263,-4.6227,-4.6249,-4.6241,-4.625,-4.622,-4.6212,-4.6217,-4.6195,-4.6199,-4.6263,-4.6322,-4.6198,-4.6202,-4.6431,-4.6437,-4.6443,-4.6564,0,0,0,0,0,0,-4.6229,-4.6239,-4.6278,-4.626,-4.6266,-4.635,-4.6253,-4.6244,-4.6257,-4.6246,-4.6234,-4.6228,-4.6192,-4.6258,-4.6266,-4.6325,-4.6204,-4.6425,-4.6434,-4.6441,-4.6554,-4.6574,-4.659,0,0,0,0,0,-4.6227,-4.6312,-4.628,-4.6288,-4.6313,-4.6353,-4.6356,-4.6314,-4.6262,-4.63,-4.6281,-4.6228,-4.6314,-4.6265,-4.6274,-4.6334,-4.6421,-4.6431,-4.6441,-4.6546,-4.657,-4.659,0,0,0,0,0,0,-4.6337,-4.6308,-4.6273,-4.6355,-4.6358,-4.6336,-4.6383,-4.634,-4.6357,-4.6346,-4.6292,-4.629,-4.6362,-4.6354,-4.63,-4.6433,-4.6358,-4.637,-4.6436,-4.6458,-4.6475,-4.6476,-4.6207,0,0,0,0,0,-4.6371,-4.6406,-4.6379,-4.6454,-4.6457,-4.642,-4.6436,-4.6403,-4.6403,-4.6403,-4.6388,-4.6391,-4.6418,-4.6437,-4.6461,-4.6552,-4.6548,-4.6598,-4.6616,-4.6631,-4.6642,-4.6691,-4.6713,-4.6477,-4.6477,-4.6477,0,0,-4.6441,-4.643,-4.6455,-4.6476,-4.6473,-4.6511,-4.6422,-4.6465,-4.6492,-4.641,-4.6469,-4.6459,-4.6457,-4.6536,-4.6569,-4.6531,-4.6706,-4.6643,-4.6655,-4.6658,-4.6703,-4.6725,-4.6745,-4.6484,-4.6483,-4.6482,0,0,-4.6588,-4.6583,-4.6645,-4.6645,-4.6643,-4.6618,-4.6633,-4.6618,-4.6608,-4.6667,-4.6606,-4.6637,-4.6685,-4.6687,-4.6695,-4.6843,-4.6796,-4.6852,-4.6946,-4.6994,-4.7013,-4.7029,-4.7083,-4.7103,-4.6863,-4.6864,-4.6864,0,-4.6676,-4.673,-4.6683,-4.6731,-4.6742,-4.6668,-4.6731,-4.6733,-4.6739,-4.6748,-4.6705,-4.6765,-4.6759,-4.6837,-4.6873,-4.6881,-4.6897,-4.6854,-4.7014,-4.7029,-4.7044,-4.7095,-4.7115,-4.687,-4.687,-4.6869,-4.6868,0,-4.6839,-4.6877,-4.6928,-4.6936,-4.6952,-4.7007,-4.6968,-4.699,-4.6956,-4.6936,-4.6997,-4.6987,-4.7007,-4.7023,-4.699,-4.7097,-4.7073,-4.7023,-4.6947,-4.7074,-4.7121,-4.714,-4.6881,-4.6878,-4.6876,-4.6874,0,0,-4.7056,-4.7037,-4.7057,-4.706,-4.7052,-4.7081,-4.7133,-4.7153,-4.7174,-4.718,-4.7222,-4.7265,-4.7218,-4.7227,-4.7193,-4.7235,-4.7354,-4.7179,-4.7178,-4.7213,-4.7473,-4.7512,-4.7536,-4.7322,-4.7326,-4.7328,-4.7474,0,-4.72,-4.7288,-4.7246,-4.7339,-4.7374,-4.7305,-4.735,-4.7351,-4.7333,-4.7361,-4.734,-4.7372,-4.7308,-4.7312,-4.7351,-4.7332,-4.7406,-4.732,-4.7362,-4.7364,-4.7366,-4.756,-4.7601,-4.7739,-4.7492,-4.7495,-4.7497,0,-4.7379,-4.7394,-4.749,-4.7477,-4.749,-4.7531,-4.7547,-4.7574,-4.7573,-4.7557,-4.7567,-4.7523,-4.7573,-4.7497,-4.7565,-4.7508,-4.7522,-4.7516,-4.752,-4.7523,-4.7439,-4.757,-4.7782,-4.7803,-4.7525,-4.7523,-4.7521,0,-4.753,-4.7573,-4.7637,-4.7641,-4.7627,-4.7658,-4.7653,-4.7648,-4.7663,-4.7676,-4.7685,-4.7704,-4.7715,-4.7731,-4.7694,-4.7641,-4.7768,-4.7688,-4.7757,-4.7758,-4.7787,-4.7786,-4.8006,-4.7795,-4.7794,-4.7794,-4.7794,0,-4.7695,-4.7758,-4.7704,-4.7744,-4.7811,-4.7763,-4.7831,-4.7818,-4.7815,-4.785,-4.7791,-4.7826,-4.7774,-4.7803,-4.7774,-4.7836,-4.7841,-4.783,-4.7822,-4.7836,-4.7838,-4.7846,-4.7836,-4.7799,-4.7798,-4.7797,-4.7796,0,-4.7876,-4.7843,-4.7907,-4.7888,-4.7885,-4.7936,-4.7919,-4.7955,-4.7933,-4.7979,-4.7987,-4.7953,-4.7985,-4.7948,-4.7977,-4.7958,-4.8042,-4.8019,-4.8043,-4.8037,-4.8108,-4.8102,-4.8341,-4.8371,-4.814,-4.8142,-4.8144,0,-4.7984,-4.8031,-4.8017,-4.8036,-4.8035,-4.8068,-4.8083,-4.8037,-4.8055,-4.8057,-4.8093,-4.812,-4.8139,-4.8193,-4.8171,-4.8193,-4.8171,-4.8253,-4.8174,-4.8187,-4.8174,-4.8172,-4.8177,-4.827,-4.8273,-4.8275,-4.8277,0,-4.8181,-4.8162,-4.8186,-4.8206,-4.8225,-4.8238,-4.8246,-4.8265,-4.8217,-4.8241,-4.8273,-4.8288,-4.8317,-4.8345,-4.8361,-4.8356,-4.831,-4.8302,-4.8319,-4.8335,-4.8348,-4.8343,-4.8088,-4.8297,-4.8295,-4.8293,-4.8292,-4.8292,-4.833,-4.8368,-4.8364,-4.8393,-4.8394,-4.8403,-4.8436,-4.8418,-4.8444,-4.8465,-4.8436,-4.8476,-4.8474,-4.849,-4.8491,-4.8521,-4.8486,-4.8511,-4.8518,-4.8525,-4.8536,-4.8342,-4.8524,-4.8523,-4.8523,-4.8522,-4.8522,0,-4.8524,-4.8519,-4.8546,-4.8559,-4.8582,-4.8535,-4.8542,-4.8564,-4.8601,-4.8602,-4.8623,-4.866,-4.8687,-4.8667,-4.8689,-4.8718,-4.8697,-4.8725,-4.8724,-4.8723,-4.8566,-4.8549,-4.8742,-4.8742,-4.8742,-4.8742,-4.8742,-4.8742,-4.8629,-4.8691,-4.8672,-4.8735,-4.8728,-4.8767,-4.8775,-4.8783,-4.8785,-4.8829,-4.8851,-4.8838,-4.8831,-4.8852,-4.8875,-4.8868,-4.888,-4.8916,-4.8903,-4.8756,-4.8734,-4.8714,-4.8698,-4.8919,-4.8919,-4.9058,-4.9059,-4.906]}]]